GSAT0203 (GALILEO 7)

Last updated on Nov. 19, 2019, 4:25 a.m. UTC

1 40544U 15017A   19322.56210229 -.00000062  00000-0  00000+0 0  9993
2 40544  56.2806  47.2853 0004725 236.7090 123.2751  1.70475176 28908
UTC
Height (km)
Latitude
Longitude
Inclination
Orbital Period
UTC large
Height (km)
Speed (km/s)
/
Latitude / Longitude
Inclination (degrees)
Orbital Period (minutes)
Azimuth
Elevation
Range (km)
Doppler Factor
iOS Compass Heading
iOS Angle

Next 30 passes for location: Hong Kong

Rise time Rise Azimuth (degrees) Set time Set Azimuth (degrees) Duration Max altitude (degrees)

No matching passes for this satellites